DateTimeUTC,F1_A11,F1_S11,BsB_S11,BsG_S11,BsR_S11,BbsB_S11,BbsG_S11,BbsR_S11,BaB_A11,BaG_A11,BaR_A11,Tu_S11,T_S11,Uu_S11,U_S11,P_S11,T1_A11
2021-07-27T18:00:00Z,00000200,20000000,,,,,,,-000.67,-000.11,-000.13,20.4,26.7,15.6,10.7,0686.6,31.2
2021-07-27T18:01:00Z,00000200,20000000,,,,,,,0000.30,0000.02,-000.46,20.4,26.7,15.6,10.7,0686.6,31.2
2021-07-27T18:02:00Z,00000200,20000000,,,,,,,-000.32,-000.17,0000.27,20.4,26.7,15.6,10.7,0686.6,31.2
2021-07-27T18:03:00Z,00000200,60000000,,,,,,,0003.83,0003.22,0002.74,20.4,26.7,15.6,10.7,0686.6,31.2
2021-07-27T18:04:00Z,00000200,40000000,0026.64,0020.15,0012.39,0003.38,0002.57,0001.89,0004.66,0004.67,0003.49,20.5,26.5,15.8,11.0,0687.6,31.2
2021-07-27T18:05:00Z,00000200,00000000,0027.88,0020.11,0012.75,0002.93,0002.43,0001.78,0005.01,0004.71,0003.83,20.5,26.5,15.9,11.1,0687.6,31.1
2021-07-27T18:06:00Z,00000200,00000000,0028.45,0020.57,0012.82,0002.94,0002.33,0002.17,0004.33,0004.02,0003.03,20.5,26.5,15.9,11.1,0687.6,31.2
2021-07-27T18:07:00Z,00000200,00000000,0027.09,0020.45,0012.86,0003.30,0002.68,0001.69,0004.80,0004.26,0003.51,20.5,26.5,15.8,11.1,0687.6,31.2
2021-07-27T18:08:00Z,00000200,00000000,0028.56,0021.49,0013.41,0003.32,0002.34,0001.85,0005.14,0004.87,0003.65,20.5,26.5,15.9,11.1,0687.6,31.2
2021-07-27T18:09:00Z,00000200,00000000,0029.96,0021.71,0013.27,0002.41,0003.07,0001.76,0005.24,0004.57,0003.51,20.5,26.5,16.0,11.2,0687.7,31.1
2021-07-27T18:10:00Z,00000200,00000000,0029.29,0021.20,0013.31,0003.34,0002.75,0001.96,0004.68,0004.78,0003.76,20.5,26.5,15.9,11.1,0687.7,31.2
2021-07-27T18:11:00Z,00000200,00000000,0027.58,0021.45,0013.15,0002.89,0002.74,0001.84,0004.81,0003.91,0003.33,20.6,26.5,15.9,11.2,0687.6,31.2
2021-07-27T18:12:00Z,00000200,00000000,0027.35,0019.64,0012.06,0002.56,0002.52,0001.40,0004.45,0004.33,0003.37,20.5,26.5,15.8,11.1,0687.6,31.2
2021-07-27T18:13:00Z,00000200,00000000,0025.00,0018.42,0011.57,0002.43,0001.97,0001.60,0003.93,0003.30,0002.56,20.6,26.5,15.8,11.1,0687.6,31.2
2021-07-27T18:14:00Z,00000200,00000000,0025.20,0017.97,0010.80,0002.12,0002.00,0001.32,0004.11,0004.20,0003.13,20.5,26.5,15.7,11.0,0687.6,31.2
2021-07-27T18:15:00Z,00000200,00000000,0024.68,0017.70,0011.40,0002.99,0001.94,0001.67,0004.83,0003.79,0003.19,20.5,26.5,15.7,11.0,0687.6,31.2
2021-07-27T18:16:00Z,00000200,00000000,0023.76,0016.50,0010.73,0002.27,0001.81,0001.45,0003.61,0003.73,0002.54,20.6,26.5,15.7,11.0,0687.6,31.2
2021-07-27T18:17:00Z,00000200,00000000,0023.71,0017.10,0010.76,0002.81,0002.14,0001.51,0003.99,0003.79,0002.95,20.6,26.5,15.6,10.9,0687.7,31.2
2021-07-27T18:18:00Z,00000200,00000000,0026.39,0018.89,0011.75,0002.65,0002.31,0001.57,0004.64,0004.30,0003.34,20.6,26.5,15.7,11.0,0687.7,31.2
2021-07-27T18:19:00Z,00000200,00000000,0027.89,0020.39,0012.31,0003.03,0002.53,0001.82,0005.16,0004.52,0003.58,20.6,26.5,15.9,11.1,0687.7,31.2
2021-07-27T18:20:00Z,00000200,00000000,0027.23,0020.76,0012.88,0002.85,0002.69,0001.96,0004.68,0004.01,0003.38,20.6,26.5,15.9,11.1,0687.7,31.2
2021-07-27T18:21:00Z,00000200,00000000,0026.92,0020.62,0012.68,0002.78,0002.20,0002.06,0004.15,0004.06,0003.14,20.6,26.5,15.8,11.1,0687.7,31.2
2021-07-27T18:22:00Z,00000200,00000000,0026.32,0019.49,0012.06,0003.03,0002.11,0001.45,0004.67,0004.65,0003.61,20.6,26.5,15.8,11.1,0687.7,31.2
2021-07-27T18:23:00Z,00000200,00000000,0027.05,0019.78,0012.50,0002.63,0002.71,0001.85,0004.99,0004.20,0003.14,20.6,26.5,16.0,11.2,0687.8,31.2
2021-07-27T18:24:00Z,00000200,00000000,0027.57,0020.58,0012.70,0002.22,0002.49,0001.67,0004.55,0004.09,0003.81,20.6,26.5,15.9,11.1,0687.7,31.2
2021-07-27T18:25:00Z,00000200,00000000,0027.36,0020.33,0012.79,0002.80,0002.43,0001.47,0004.73,0004.55,0003.12,20.6,26.5,15.9,11.1,0687.8,31.1
2021-07-27T18:26:00Z,00000200,00000000,0027.95,0021.11,0013.29,0003.30,0002.71,0001.91,0004.55,0004.34,0003.37,20.6,26.5,15.8,11.1,0687.8,31.2
2021-07-27T18:27:00Z,00000200,00000000,0026.95,0020.30,0012.34,0002.17,0002.49,0001.76,0004.76,0003.89,0003.28,20.6,26.5,15.8,11.1,0687.8,31.2
2021-07-27T18:28:00Z,00000200,00000000,0027.80,0019.90,0012.31,0003.18,0002.42,0001.81,0004.42,0004.53,0003.48,20.6,26.5,15.9,11.1,0687.8,31.2
2021-07-27T18:29:00Z,00000200,00000000,0027.05,0020.24,0013.10,0003.09,0002.61,0001.55,0004.70,0003.81,0003.07,20.6,26.5,15.8,11.1,0687.8,31.2
2021-07-27T18:30:00Z,00000200,00000000,0028.10,0021.11,0013.21,0002.91,0002.86,0001.69,0004.89,0004.99,0003.28,20.6,26.4,15.8,11.1,0687.8,31.2
2021-07-27T18:31:00Z,00000200,00000000,0026.82,0020.19,0012.57,0003.05,0002.31,0001.54,0004.24,0003.70,0003.53,20.6,26.5,15.7,11.0,0687.7,31.2
2021-07-27T18:32:00Z,00000200,00000000,0026.59,0020.27,0012.54,0003.10,0002.21,0001.70,0004.98,0004.30,0003.39,20.6,26.5,15.7,11.0,0687.8,31.1
2021-07-27T18:33:00Z,00000200,00000000,0026.14,0018.81,0012.00,0002.72,0002.03,0001.96,0003.93,0003.88,0003.17,20.6,26.5,15.7,11.0,0687.7,31.1
2021-07-27T18:34:00Z,00000200,00000000,0024.23,0018.51,0011.25,0002.64,0002.33,0001.65,0004.19,0003.98,0003.35,20.6,26.4,15.8,11.1,0687.7,31.2
2021-07-27T18:35:00Z,00000200,00000000,0024.47,0019.10,0011.45,0002.68,0002.34,0001.50,0004.11,0004.48,0002.68,20.6,26.5,15.8,11.0,0687.8,31.2
2021-07-27T18:36:00Z,00000200,00000000,0026.95,0020.31,0012.35,0002.80,0002.15,0001.90,0004.60,0003.37,0003.45,20.6,26.5,15.7,11.0,0687.8,31.2
2021-07-27T18:37:00Z,00000200,00000000,0026.68,0019.94,0013.01,0003.15,0002.20,0001.62,0004.49,0004.05,0003.01,20.6,26.5,15.7,11.0,0687.8,31.2
2021-07-27T18:38:00Z,00000200,00000000,0025.73,0019.59,0012.33,0002.70,0002.13,0001.56,0004.43,0003.99,0003.31,20.6,26.5,15.7,11.0,0687.8,31.2
2021-07-27T18:39:00Z,00000200,00000000,0025.01,0019.13,0012.15,0002.92,0002.37,0001.81,0004.57,0004.35,0002.90,20.6,26.4,15.7,11.0,0687.8,31.2
2021-07-27T18:40:00Z,00000200,00000000,0025.58,0019.74,0012.46,0002.87,0002.83,0002.01,0004.51,0004.14,0003.60,20.6,26.5,15.7,11.0,0687.8,31.2
2021-07-27T18:41:00Z,00000200,00000000,0025.71,0018.92,0012.65,0003.13,0002.32,0001.73,0004.17,0003.76,0003.03,20.6,26.5,15.7,11.0,0687.8,31.2
2021-07-27T18:42:00Z,00000200,00000000,0024.39,0017.85,0011.07,0002.37,0002.20,0001.24,0004.57,0004.25,0002.89,20.6,26.5,15.7,11.0,0687.8,31.2
2021-07-27T18:43:00Z,00000200,00000000,0024.39,0019.18,0012.21,0002.84,0002.51,0001.94,0003.98,0003.67,0003.27,20.6,26.5,15.7,11.0,0687.8,31.2
2021-07-27T18:44:00Z,00000200,00000000,0027.34,0021.00,0013.20,0002.83,0002.50,0001.51,0004.79,0004.54,0003.60,20.6,26.4,15.8,11.1,0687.8,31.2
2021-07-27T18:45:00Z,00000200,00000000,0027.96,0021.01,0013.48,0002.26,0002.39,0001.75,0004.94,0004.38,0003.80,20.6,26.5,15.7,11.0,0687.8,31.2
2021-07-27T18:46:00Z,00000200,00000000,0029.15,0021.53,0013.83,0003.51,0002.86,0001.88,0004.55,0004.58,0003.37,20.6,26.5,15.9,11.1,0687.8,31.2
2021-07-27T18:47:00Z,00000200,00000000,0028.41,0021.56,0014.04,0002.95,0002.36,0001.92,0005.14,0004.25,0003.36,20.6,26.5,15.8,11.1,0687.8,31.2
2021-07-27T18:48:00Z,00000200,00000000,0026.75,0020.30,0012.94,0002.78,0002.46,0001.54,0004.14,0004.18,0003.10,20.6,26.5,15.7,11.0,0687.8,31.2
2021-07-27T18:49:00Z,00000200,00000000,0026.04,0019.89,0012.55,0002.49,0002.51,0001.82,0004.64,0003.82,0003.06,20.6,26.5,15.6,11.0,0687.8,31.2
2021-07-27T18:50:00Z,00000200,00000000,0026.78,0020.29,0013.17,0003.44,0002.84,0001.67,0004.30,0004.48,0003.37,20.6,26.4,15.8,11.1,0687.8,31.2
2021-07-27T18:51:00Z,00000200,00000000,0027.16,0020.98,0013.84,0002.85,0002.26,0002.03,0004.84,0004.32,0003.92,20.6,26.4,15.7,11.0,0687.8,31.2
2021-07-27T18:52:00Z,00000200,00000000,0028.05,0021.06,0014.06,0002.51,0002.09,0001.79,0005.12,0004.61,0003.44,20.6,26.4,15.9,11.1,0687.8,31.2
2021-07-27T18:53:00Z,00000200,00000000,0029.02,0021.51,0013.92,0002.92,0002.57,0001.98,0004.59,0004.39,0003.34,20.6,26.5,15.8,11.1,0687.8,31.2
2021-07-27T18:54:00Z,00000200,00000000,0027.27,0021.07,0013.56,0003.18,0002.61,0002.03,0005.02,0004.45,0003.64,20.6,26.4,15.8,11.0,0687.8,31.2
2021-07-27T18:55:00Z,00000200,00000000,0027.45,0020.92,0013.40,0003.04,0002.80,0001.95,0004.49,0004.46,0003.41,20.6,26.5,15.7,11.0,0687.8,31.2
2021-07-27T18:56:00Z,00000200,00000000,0027.41,0020.63,0013.85,0003.24,0002.72,0002.06,0004.52,0003.81,0003.22,20.6,26.4,15.8,11.1,0687.8,31.2
2021-07-27T18:57:00Z,00000200,40000000,,,,,,,0001.25,0001.08,0001.10,20.6,26.5,15.8,11.1,0687.8,31.2
2021-07-27T18:58:00Z,00000200,60000000,,,,,,,-000.05,0000.17,-000.02,20.4,26.6,15.9,10.9,0686.8,31.2
2021-07-27T18:59:00Z,00000200,20000000,,,,,,,0000.03,-000.09,-000.20,20.4,26.7,15.9,10.9,0686.8,31.2
